Time,TemperatureF,DewpointF,PressureIn,WindDirection,WindDirectionDegrees,WindSpeedMPH,WindSpeedGustMPH,Humidity,HourlyPrecipIn,Conditions,Clouds,dailyrainin,SoftwareType,DateUTC
2013-04-06 00:02:00,67.1,27.7,27.32,SE,135,0.9,1.3,23,0.00,,,0.00,WUHU216HW,2013-04-06 07:02:00,
2013-04-06 00:07:00,67.0,28.6,27.33,SSE,158,0.4,1.3,24,0.00,,,0.00,WUHU216HW,2013-04-06 07:07:00,
2013-04-06 00:12:00,66.6,28.3,27.33,ESE,113,1.1,1.6,24,0.00,,,0.00,WUHU216HW,2013-04-06 07:12:00,
2013-04-06 00:17:00,66.4,28.2,27.33,SE,135,0.4,1.8,24,0.00,,,0.00,WUHU216HW,2013-04-06 07:17:00,
2013-04-06 00:22:00,66.4,28.2,27.32,SE,135,0.7,1.8,24,0.00,,,0.00,WUHU216HW,2013-04-06 07:22:00,
2013-04-06 00:27:00,66.2,28.0,27.33,SE,135,0.4,1.1,24,0.00,,,0.00,WUHU216HW,2013-04-06 07:27:00,
2013-04-06 00:32:00,65.9,27.6,27.32,SE,135,0.0,1.1,24,0.00,,,0.00,WUHU216HW,2013-04-06 07:32:00,
2013-04-06 00:37:00,65.5,27.4,27.32,SE,135,0.2,0.4,24,0.00,,,0.00,WUHU216HW,2013-04-06 07:37:00,
2013-04-06 00:42:00,65.2,28.1,27.32,SE,135,0.4,2.0,25,0.00,,,0.00,WUHU216HW,2013-04-06 07:42:00,
2013-04-06 00:47:00,64.4,27.5,27.32,ESE,113,0.4,2.0,25,0.00,,,0.00,WUHU216HW,2013-04-06 07:47:00,
2013-04-06 00:52:00,64.1,27.2,27.32,East,90,1.1,1.1,25,0.00,,,0.00,WUHU216HW,2013-04-06 07:52:00,
2013-04-06 00:57:00,63.9,27.0,27.32,ESE,113,0.2,1.6,25,0.00,,,0.00,WUHU216HW,2013-04-06 07:57:00,
2013-04-06 01:02:00,63.9,27.0,27.32,ESE,113,0.0,1.6,25,0.00,,,0.00,WUHU216HW,2013-04-06 08:02:00,
2013-04-06 01:07:00,63.9,27.0,27.32,East,90,1.1,1.1,25,0.00,,,0.00,WUHU216HW,2013-04-06 08:07:00,
2013-04-06 01:12:00,63.9,27.0,27.32,ESE,113,0.4,1.1,25,0.00,,,0.00,WUHU216HW,2013-04-06 08:12:00,
2013-04-06 01:17:00,63.9,27.0,27.32,ESE,113,0.4,0.9,25,0.00,,,0.00,WUHU216HW,2013-04-06 08:17:00,
2013-04-06 01:22:00,63.7,27.8,27.32,SE,135,0.4,1.1,26,0.00,,,0.00,WUHU216HW,2013-04-06 08:22:00,
2013-04-06 01:27:00,63.5,27.6,27.31,ESE,113,0.0,1.1,26,0.00,,,0.00,WUHU216HW,2013-04-06 08:27:00,
2013-04-06 01:32:00,63.4,28.5,27.32,SE,135,0.4,0.9,27,0.00,,,0.00,WUHU216HW,2013-04-06 08:32:00,
2013-04-06 01:37:00,63.4,28.5,27.32,ESE,113,0.4,1.1,27,0.00,,,0.00,WUHU216HW,2013-04-06 08:37:00,
2013-04-06 01:42:00,63.4,29.4,27.32,ESE,113,1.1,1.1,28,0.00,,,0.00,WUHU216HW,2013-04-06 08:42:00,
2013-04-06 01:48:00,63.2,29.4,27.31,ESE,113,1.1,1.6,28,0.00,,,0.00,WUHU216HW,2013-04-06 08:48:00,
2013-04-06 01:53:00,63.0,29.2,27.31,ESE,113,1.1,1.6,28,0.00,,,0.00,WUHU216HW,2013-04-06 08:53:00,
2013-04-06 01:58:00,63.0,29.2,27.31,SE,135,1.1,1.3,28,0.00,,,0.00,WUHU216HW,2013-04-06 08:58:00,
2013-04-06 02:03:00,62.6,28.8,27.31,ESE,113,0.2,1.6,28,0.00,,,0.00,WUHU216HW,2013-04-06 09:03:00,
2013-04-06 02:08:00,62.5,28.7,27.31,ESE,113,0.4,1.6,28,0.00,,,0.00,WUHU216HW,2013-04-06 09:08:00,
2013-04-06 02:13:00,62.3,29.5,27.31,ESE,113,0.0,1.3,29,0.00,,,0.00,WUHU216HW,2013-04-06 09:13:00,
2013-04-06 02:18:00,61.9,29.2,27.31,ENE,68,0.9,1.1,29,0.00,,,0.00,WUHU216HW,2013-04-06 09:18:00,
2013-04-06 02:23:00,61.7,29.0,27.31,East,90,0.2,1.6,29,0.00,,,0.00,WUHU216HW,2013-04-06 09:23:00,
2013-04-06 02:28:00,61.6,28.9,27.31,ESE,113,0.0,1.6,29,0.00,,,0.00,WUHU216HW,2013-04-06 09:28:00,
2013-04-06 02:33:00,61.2,28.5,27.30,ESE,113,0.0,1.3,29,0.00,,,0.00,WUHU216HW,2013-04-06 09:33:00,
2013-04-06 02:38:00,61.0,28.4,27.31,ESE,113,0.7,0.9,29,0.00,,,0.00,WUHU216HW,2013-04-06 09:38:00,
2013-04-06 02:43:00,61.0,29.4,27.30,ESE,113,1.3,1.6,30,0.00,,,0.00,WUHU216HW,2013-04-06 09:43:00,
2013-04-06 02:48:00,60.8,29.2,27.30,ESE,113,1.8,1.8,30,0.00,,,0.00,WUHU216HW,2013-04-06 09:48:00,
2013-04-06 02:53:00,60.7,29.0,27.30,ESE,113,0.2,1.8,30,0.00,,,0.00,WUHU216HW,2013-04-06 09:53:00,
2013-04-06 02:58:00,60.5,29.6,27.30,ESE,113,0.2,1.8,31,0.00,,,0.00,WUHU216HW,2013-04-06 09:58:00,
2013-04-06 03:03:00,60.5,29.6,27.30,ESE,113,0.9,1.1,31,0.00,,,0.00,WUHU216HW,2013-04-06 10:03:00,
2013-04-06 03:08:00,60.5,29.6,27.30,ESE,113,1.1,1.6,31,0.00,,,0.00,WUHU216HW,2013-04-06 10:08:00,
2013-04-06 03:13:00,60.3,30.2,27.30,ESE,113,1.1,1.8,32,0.00,,,0.00,WUHU216HW,2013-04-06 10:13:00,
2013-04-06 03:18:00,60.1,30.0,27.30,ESE,113,0.9,2.0,32,0.00,,,0.00,WUHU216HW,2013-04-06 10:18:00,
2013-04-06 03:23:00,60.1,30.0,27.30,ESE,113,1.3,2.0,32,0.00,,,0.00,WUHU216HW,2013-04-06 10:23:00,
2013-04-06 03:28:00,60.1,30.0,27.30,ESE,113,1.6,2.2,32,0.00,,,0.00,WUHU216HW,2013-04-06 10:28:00,
2013-04-06 03:33:00,60.1,30.0,27.30,ESE,113,0.4,2.2,32,0.00,,,0.00,WUHU216HW,2013-04-06 10:33:00,
2013-04-06 03:38:00,60.1,30.0,27.30,ESE,113,1.6,1.8,32,0.00,,,0.00,WUHU216HW,2013-04-06 10:38:00,
2013-04-06 03:43:00,59.9,29.9,27.30,ESE,113,1.6,1.8,32,0.00,,,0.00,WUHU216HW,2013-04-06 10:43:00,
2013-04-06 03:48:00,59.9,29.9,27.30,ESE,113,0.7,1.8,32,0.00,,,0.00,WUHU216HW,2013-04-06 10:48:00,
2013-04-06 03:53:00,59.9,29.9,27.30,East,90,0.4,1.6,32,0.00,,,0.00,WUHU216HW,2013-04-06 10:53:00,
2013-04-06 03:58:00,60.1,30.0,27.30,ESE,113,0.9,1.6,32,0.00,,,0.00,WUHU216HW,2013-04-06 10:58:00,
2013-04-06 04:03:00,59.9,30.6,27.30,SE,135,1.1,1.6,33,0.00,,,0.00,WUHU216HW,2013-04-06 11:03:00,
2013-04-06 04:08:00,59.9,30.6,27.30,East,90,2.5,3.1,33,0.00,,,0.00,WUHU216HW,2013-04-06 11:08:00,
2013-04-06 04:13:00,59.8,30.4,27.30,ESE,113,1.1,3.4,33,0.00,,,0.00,WUHU216HW,2013-04-06 11:13:00,
2013-04-06 04:18:00,59.8,30.4,27.30,SE,135,1.1,3.4,33,0.00,,,0.00,WUHU216HW,2013-04-06 11:18:00,
2013-04-06 04:23:00,59.8,31.2,27.30,ENE,68,1.8,2.2,34,0.00,,,0.00,WUHU216HW,2013-04-06 11:23:00,
2013-04-06 04:28:00,59.9,31.3,27.31,ENE,68,1.3,2.5,34,0.00,,,0.00,WUHU216HW,2013-04-06 11:28:00,
2013-04-06 04:33:00,59.9,31.3,27.31,SE,135,2.0,2.7,34,0.00,,,0.00,WUHU216HW,2013-04-06 11:33:00,
2013-04-06 04:38:00,60.1,31.4,27.31,ESE,113,2.5,2.7,34,0.00,,,0.00,WUHU216HW,2013-04-06 11:38:00,
2013-04-06 04:43:00,60.1,31.4,27.31,ESE,113,1.8,2.5,34,0.00,,,0.00,WUHU216HW,2013-04-06 11:43:00,
2013-04-06 04:48:00,60.1,31.4,27.31,ESE,113,2.2,3.4,34,0.00,,,0.00,WUHU216HW,2013-04-06 11:48:00,
2013-04-06 04:53:00,59.9,31.3,27.31,SSE,158,1.6,3.4,34,0.00,,,0.00,WUHU216HW,2013-04-06 11:53:00,
2013-04-06 04:58:00,59.9,31.3,27.31,ESE,113,0.9,3.1,34,0.00,,,0.00,WUHU216HW,2013-04-06 11:58:00,
2013-04-06 05:03:00,59.8,31.2,27.31,SE,135,1.6,2.9,34,0.00,,,0.00,WUHU216HW,2013-04-06 12:03:00,
2013-04-06 05:08:00,59.9,32.0,27.32,SSE,158,1.1,2.9,35,0.00,,,0.00,WUHU216HW,2013-04-06 12:08:00,
2013-04-06 05:13:00,59.8,31.2,27.32,SE,135,1.3,2.2,34,0.00,,,0.00,WUHU216HW,2013-04-06 12:13:00,
2013-04-06 05:18:00,59.6,31.7,27.31,ESE,113,1.1,2.0,35,0.00,,,0.00,WUHU216HW,2013-04-06 12:18:00,
2013-04-06 05:23:00,59.4,31.5,27.32,ESE,113,1.6,2.0,35,0.00,,,0.00,WUHU216HW,2013-04-06 12:23:00,
2013-04-06 05:28:00,59.4,31.5,27.32,ESE,113,1.3,2.0,35,0.00,,,0.00,WUHU216HW,2013-04-06 12:28:00,
2013-04-06 05:33:00,59.2,31.4,27.32,ESE,113,1.1,2.0,35,0.00,,,0.00,WUHU216HW,2013-04-06 12:33:00,
2013-04-06 05:38:00,59.0,32.0,27.32,ENE,68,0.9,2.2,36,0.00,,,0.00,WUHU216HW,2013-04-06 12:38:00,
2013-04-06 05:43:00,58.7,31.6,27.32,East,90,0.9,2.2,36,0.00,,,0.00,WUHU216HW,2013-04-06 12:43:00,
2013-04-06 05:48:00,58.1,31.2,27.32,ENE,68,1.1,2.5,36,0.00,,,0.00,WUHU216HW,2013-04-06 12:48:00,
2013-04-06 05:53:00,57.8,30.8,27.33,NE,45,2.2,2.5,36,0.00,,,0.00,WUHU216HW,2013-04-06 12:53:00,
2013-04-06 05:58:00,57.4,30.5,27.32,ESE,113,0.4,2.2,36,0.00,,,0.00,WUHU216HW,2013-04-06 12:58:00,
2013-04-06 06:03:00,57.1,30.2,27.33,ENE,68,1.1,1.8,36,0.00,,,0.00,WUHU216HW,2013-04-06 13:03:00,
2013-04-06 06:08:00,56.9,30.0,27.33,ENE,68,0.9,1.8,36,0.00,,,0.00,WUHU216HW,2013-04-06 13:08:00,
2013-04-06 06:13:00,56.5,30.3,27.33,ENE,68,1.1,2.2,37,0.00,,,0.00,WUHU216HW,2013-04-06 13:13:00,
2013-04-06 06:18:00,56.5,30.3,27.33,ENE,68,1.6,2.2,37,0.00,,,0.00,WUHU216HW,2013-04-06 13:18:00,
2013-04-06 06:23:00,56.5,30.3,27.34,East,90,0.0,1.6,37,0.00,,,0.00,WUHU216HW,2013-04-06 13:23:00,
2013-04-06 06:29:00,56.2,30.1,27.34,East,90,0.2,1.6,37,0.00,,,0.00,WUHU216HW,2013-04-06 13:29:00,
2013-04-06 06:34:00,56.2,30.1,27.34,East,90,0.4,0.9,37,0.00,,,0.00,WUHU216HW,2013-04-06 13:34:00,
2013-04-06 06:39:00,56.2,30.1,27.34,East,90,0.0,1.3,37,0.00,,,0.00,WUHU216HW,2013-04-06 13:39:00,
2013-04-06 06:44:00,56.3,30.9,27.34,East,90,0.0,1.3,38,0.00,,,0.00,WUHU216HW,2013-04-06 13:44:00,
2013-04-06 06:49:00,56.5,30.3,27.34,ESE,113,0.4,1.3,37,0.00,,,0.00,WUHU216HW,2013-04-06 13:49:00,
2013-04-06 06:54:00,56.9,31.4,27.35,ESE,113,0.4,1.8,38,0.00,,,0.00,WUHU216HW,2013-04-06 13:54:00,
2013-04-06 06:59:00,57.4,31.9,27.35,ENE,68,1.6,2.7,38,0.00,,,0.00,WUHU216HW,2013-04-06 13:59:00,
2013-04-06 07:04:00,57.8,32.2,27.35,East,90,1.1,2.7,38,0.00,,,0.00,WUHU216HW,2013-04-06 14:04:00,
2013-04-06 07:09:00,58.5,32.9,27.35,SSE,158,0.9,2.5,38,0.00,,,0.00,WUHU216HW,2013-04-06 14:09:00,
2013-04-06 07:14:00,59.2,33.5,27.35,ESE,113,0.2,2.2,38,0.00,,,0.00,WUHU216HW,2013-04-06 14:14:00,
2013-04-06 07:19:00,59.8,33.3,27.35,ESE,113,0.9,2.2,37,0.00,,,0.00,WUHU216HW,2013-04-06 14:19:00,
2013-04-06 07:24:00,60.1,33.6,27.35,SE,135,3.4,3.4,37,0.00,,,0.00,WUHU216HW,2013-04-06 14:24:00,
2013-04-06 07:29:00,60.7,34.0,27.36,ESE,113,1.3,3.4,37,0.00,,,0.00,WUHU216HW,2013-04-06 14:29:00,
2013-04-06 07:34:00,61.2,33.9,27.36,ESE,113,0.7,3.1,36,0.00,,,0.00,WUHU216HW,2013-04-06 14:34:00,
2013-04-06 07:39:00,61.9,34.5,27.36,ESE,113,1.6,3.1,36,0.00,,,0.00,WUHU216HW,2013-04-06 14:39:00,
2013-04-06 07:44:00,62.3,33.3,27.36,SSE,158,2.7,3.8,34,0.00,,,0.00,WUHU216HW,2013-04-06 14:44:00,
2013-04-06 07:49:00,62.8,33.9,27.36,ESE,113,0.9,3.8,34,0.00,,,0.00,WUHU216HW,2013-04-06 14:49:00,
2013-04-06 07:55:00,63.0,33.3,27.36,East,90,0.4,3.4,33,0.00,,,0.00,WUHU216HW,2013-04-06 14:55:00,
2013-04-06 08:00:00,63.4,33.6,27.36,ESE,113,1.6,2.0,33,0.00,,,0.00,WUHU216HW,2013-04-06 15:00:00,
2013-04-06 08:05:00,63.7,33.9,27.36,East,90,1.8,2.2,33,0.00,,,0.00,WUHU216HW,2013-04-06 15:05:00,
2013-04-06 08:10:00,64.1,34.2,27.36,SE,135,1.8,2.2,33,0.00,,,0.00,WUHU216HW,2013-04-06 15:10:00,
2013-04-06 08:15:00,64.4,33.8,27.36,SE,135,1.1,2.2,32,0.00,,,0.00,WUHU216HW,2013-04-06 15:15:00,
2013-04-06 08:20:00,65.0,34.3,27.36,SSW,203,1.1,2.9,32,0.00,,,0.00,WUHU216HW,2013-04-06 15:20:00,
2013-04-06 08:25:00,65.3,34.7,27.36,ESE,113,1.6,2.9,32,0.00,,,0.00,WUHU216HW,2013-04-06 15:25:00,
2013-04-06 08:30:00,65.7,35.0,27.36,SSE,158,0.9,3.4,32,0.00,,,0.00,WUHU216HW,2013-04-06 15:30:00,
2013-04-06 08:35:00,66.2,35.5,27.36,SE,135,0.7,3.4,32,0.00,,,0.00,WUHU216HW,2013-04-06 15:35:00,
2013-04-06 08:40:00,66.6,35.7,27.36,SE,135,2.0,4.0,32,0.00,,,0.00,WUHU216HW,2013-04-06 15:40:00,
2013-04-06 08:45:00,66.8,35.9,27.36,SE,135,0.7,4.0,32,0.00,,,0.00,WUHU216HW,2013-04-06 15:45:00,
2013-04-06 08:50:00,67.1,35.5,27.36,SW,225,1.1,2.5,31,0.00,,,0.00,WUHU216HW,2013-04-06 15:50:00,
2013-04-06 08:55:00,67.5,35.7,27.36,ESE,113,1.1,2.5,31,0.00,,,0.00,WUHU216HW,2013-04-06 15:55:00,
2013-04-06 09:00:00,67.9,36.1,27.36,ENE,68,1.6,2.5,31,0.00,,,0.00,WUHU216HW,2013-04-06 16:00:00,
2013-04-06 09:05:00,68.2,35.7,27.36,SE,135,2.5,3.1,30,0.00,,,0.00,WUHU216HW,2013-04-06 16:05:00,
2013-04-06 09:10:00,68.8,36.1,27.36,West,270,1.1,3.1,30,0.00,,,0.00,WUHU216HW,2013-04-06 16:10:00,
2013-04-06 09:15:00,68.9,35.3,27.36,NW,315,1.1,2.5,29,0.00,,,0.00,WUHU216HW,2013-04-06 16:15:00,
2013-04-06 09:20:00,69.1,35.5,27.36,SW,225,1.8,4.0,29,0.00,,,0.00,WUHU216HW,2013-04-06 16:20:00,
2013-04-06 09:25:00,69.5,35.7,27.36,ENE,68,0.4,4.0,29,0.00,,,0.00,WUHU216HW,2013-04-06 16:25:00,
2013-04-06 09:30:00,69.7,35.9,27.36,NW,315,1.8,2.5,29,0.00,,,0.00,WUHU216HW,2013-04-06 16:30:00,
2013-04-06 09:35:00,69.7,35.9,27.35,East,90,2.0,2.5,29,0.00,,,0.00,WUHU216HW,2013-04-06 16:35:00,
2013-04-06 09:40:00,70.2,35.4,27.35,NNW,338,1.3,3.4,28,0.00,,,0.00,WUHU216HW,2013-04-06 16:40:00,
2013-04-06 09:45:00,70.7,35.8,27.35,WNW,293,1.3,3.4,28,0.00,,,0.00,WUHU216HW,2013-04-06 16:45:00,
2013-04-06 09:50:00,70.9,35.0,27.35,West,270,2.2,3.4,27,0.00,,,0.00,WUHU216HW,2013-04-06 16:50:00,
2013-04-06 09:55:00,71.3,34.3,27.35,NNE,23,0.2,3.4,26,0.00,,,0.00,WUHU216HW,2013-04-06 16:55:00,
2013-04-06 10:00:00,71.3,34.3,27.35,ESE,113,2.2,3.1,26,0.00,,,0.00,WUHU216HW,2013-04-06 17:00:00,
2013-04-06 10:05:00,71.8,34.7,27.35,NE,45,2.0,3.1,26,0.00,,,0.00,WUHU216HW,2013-04-06 17:05:00,
2013-04-06 10:10:00,72.4,34.2,27.35,SSE,158,1.8,4.0,25,0.00,,,0.00,WUHU216HW,2013-04-06 17:10:00,
2013-04-06 10:15:00,72.2,34.0,27.35,NE,45,1.3,4.0,25,0.00,,,0.00,WUHU216HW,2013-04-06 17:15:00,
2013-04-06 10:20:00,72.4,34.2,27.35,North,0,0.9,2.5,25,0.00,,,0.00,WUHU216HW,2013-04-06 17:20:00,
2013-04-06 10:25:00,72.4,34.2,27.35,NW,315,1.1,2.5,25,0.00,,,0.00,WUHU216HW,2013-04-06 17:25:00,
2013-04-06 10:31:00,72.7,34.5,27.35,SSE,158,1.8,2.2,25,0.00,,,0.00,WUHU216HW,2013-04-06 17:31:00,
2013-04-06 10:36:00,73.6,33.2,27.35,ESE,113,2.0,3.4,23,0.00,,,0.00,WUHU216HW,2013-04-06 17:36:00,
2013-04-06 10:41:00,73.8,33.4,27.35,WNW,293,0.4,3.4,23,0.00,,,0.00,WUHU216HW,2013-04-06 17:41:00,
2013-04-06 10:46:00,73.8,33.4,27.35,East,90,1.3,2.5,23,0.00,,,0.00,WUHU216HW,2013-04-06 17:46:00,
2013-04-06 10:51:00,74.3,33.9,27.34,NW,315,1.1,3.4,23,0.00,,,0.00,WUHU216HW,2013-04-06 17:51:00,
2013-04-06 10:56:00,75.2,33.6,27.34,East,90,4.7,5.4,22,0.00,,,0.00,WUHU216HW,2013-04-06 17:56:00,
2013-04-06 11:01:00,75.4,33.7,27.34,SE,135,1.1,5.4,22,0.00,,,0.00,WUHU216HW,2013-04-06 18:01:00,
2013-04-06 11:06:00,76.0,33.1,27.34,ENE,68,4.7,5.6,21,0.00,,,0.00,WUHU216HW,2013-04-06 18:06:00,
2013-04-06 11:11:00,76.0,33.1,27.33,SW,225,0.4,5.6,21,0.00,,,0.00,WUHU216HW,2013-04-06 18:11:00,
2013-04-06 11:16:00,76.1,30.6,27.33,SE,135,2.0,4.7,19,0.00,,,0.00,WUHU216HW,2013-04-06 18:16:00,
2013-04-06 11:21:00,76.3,29.1,27.33,NW,315,2.5,4.3,18,0.00,,,0.00,WUHU216HW,2013-04-06 18:21:00,
2013-04-06 11:26:00,76.7,27.7,27.33,SE,135,2.9,4.3,17,0.00,,,0.00,WUHU216HW,2013-04-06 18:26:00,
2013-04-06 11:31:00,77.0,28.0,27.33,ESE,113,0.7,5.8,17,0.00,,,0.00,WUHU216HW,2013-04-06 18:31:00,
2013-04-06 11:36:00,77.0,29.6,27.33,WSW,248,2.0,5.8,18,0.00,,,0.00,WUHU216HW,2013-04-06 18:36:00,
2013-04-06 11:41:00,77.2,29.8,27.33,SW,225,1.8,4.0,18,0.00,,,0.00,WUHU216HW,2013-04-06 18:41:00,
2013-04-06 11:46:00,77.6,30.1,27.32,West,270,0.7,4.0,18,0.00,,,0.00,WUHU216HW,2013-04-06 18:46:00,
2013-04-06 11:51:00,77.8,28.5,27.32,SW,225,1.3,2.5,17,0.00,,,0.00,WUHU216HW,2013-04-06 18:51:00,
2013-04-06 11:56:00,77.9,28.6,27.32,SSW,203,3.8,3.8,17,0.00,,,0.00,WUHU216HW,2013-04-06 18:56:00,
2013-04-06 12:01:00,79.2,28.0,27.32,WSW,248,1.8,5.4,16,0.00,,,0.00,WUHU216HW,2013-04-06 19:01:00,
2013-04-06 12:06:00,80.3,28.9,27.32,SSE,158,1.6,5.4,16,0.00,,,0.00,WUHU216HW,2013-04-06 19:06:00,
2013-04-06 12:11:00,81.9,30.2,27.31,WSW,248,3.1,3.8,16,0.00,,,0.00,WUHU216HW,2013-04-06 19:11:00,
2013-04-06 12:16:00,81.9,28.5,27.31,West,270,2.9,4.7,15,0.00,,,0.00,WUHU216HW,2013-04-06 19:16:00,
2013-04-06 12:21:00,81.5,30.0,27.31,South,180,0.4,4.7,16,0.00,,,0.00,WUHU216HW,2013-04-06 19:21:00,
2013-04-06 12:26:00,81.5,30.0,27.31,West,270,3.1,4.0,16,0.00,,,0.00,WUHU216HW,2013-04-06 19:26:00,
2013-04-06 12:31:00,81.2,29.7,27.30,NW,315,1.8,4.9,16,0.00,,,0.00,WUHU216HW,2013-04-06 19:31:00,
2013-04-06 12:36:00,81.0,29.5,27.30,North,0,1.8,4.9,16,0.00,,,0.00,WUHU216HW,2013-04-06 19:36:00,
2013-04-06 12:41:00,80.8,29.3,27.30,NW,315,1.8,5.4,16,0.00,,,0.00,WUHU216HW,2013-04-06 19:41:00,
2013-04-06 12:46:00,81.0,29.5,27.30,South,180,5.1,5.4,16,0.00,,,0.00,WUHU216HW,2013-04-06 19:46:00,
2013-04-06 12:51:00,81.5,30.0,27.30,WSW,248,2.0,5.1,16,0.00,,,0.00,WUHU216HW,2013-04-06 19:51:00,
2013-04-06 12:57:00,81.7,30.1,27.30,NW,315,2.2,5.1,16,0.00,,,0.00,WUHU216HW,2013-04-06 19:57:00,
2013-04-06 13:02:00,81.7,30.1,27.29,SSW,203,2.7,4.5,16,0.00,,,0.00,WUHU216HW,2013-04-06 20:02:00,
2013-04-06 13:07:00,81.9,30.2,27.29,West,270,4.7,4.9,16,0.00,,,0.00,WUHU216HW,2013-04-06 20:07:00,
2013-04-06 13:12:00,82.3,30.5,27.29,WNW,293,1.1,4.9,16,0.00,,,0.00,WUHU216HW,2013-04-06 20:12:00,
2013-04-06 13:17:00,82.1,32.0,27.28,North,0,3.1,5.1,17,0.00,,,0.00,WUHU216HW,2013-04-06 20:17:00,
2013-04-06 13:22:00,82.1,32.0,27.28,SE,135,1.1,5.1,17,0.00,,,0.00,WUHU216HW,2013-04-06 20:22:00,
2013-04-06 13:27:00,82.4,30.7,27.28,South,180,0.7,4.7,16,0.00,,,0.00,WUHU216HW,2013-04-06 20:27:00,
2013-04-06 13:32:00,82.8,31.0,27.28,South,180,2.9,5.6,16,0.00,,,0.00,WUHU216HW,2013-04-06 20:32:00,
2013-04-06 13:37:00,83.2,31.2,27.27,WNW,293,1.8,6.5,16,0.00,,,0.00,WUHU216HW,2013-04-06 20:37:00,
2013-04-06 13:42:00,83.5,31.5,27.27,SW,225,2.9,6.5,16,0.00,,,0.00,WUHU216HW,2013-04-06 20:42:00,
2013-04-06 13:47:00,83.2,31.2,27.27,WSW,248,2.2,6.3,16,0.00,,,0.00,WUHU216HW,2013-04-06 20:47:00,
2013-04-06 13:52:00,83.5,31.5,27.27,NNW,338,2.7,6.3,16,0.00,,,0.00,WUHU216HW,2013-04-06 20:52:00,
2013-04-06 13:57:00,84.1,31.9,27.26,SW,225,1.1,6.0,16,0.00,,,0.00,WUHU216HW,2013-04-06 20:57:00,
2013-04-06 14:02:00,84.8,30.8,27.26,ENE,68,0.9,6.0,15,0.00,,,0.00,WUHU216HW,2013-04-06 21:02:00,
2013-04-06 14:07:00,84.6,30.6,27.26,NNE,23,3.4,4.0,15,0.00,,,0.00,WUHU216HW,2013-04-06 21:07:00,
2013-04-06 14:12:00,85.0,30.9,27.26,NNW,338,3.1,9.8,15,0.00,,,0.00,WUHU216HW,2013-04-06 21:12:00,
2013-04-06 14:17:00,85.1,31.1,27.25,WSW,248,1.6,9.8,15,0.00,,,0.00,WUHU216HW,2013-04-06 21:17:00,
2013-04-06 14:22:00,85.0,30.9,27.25,West,270,2.9,4.3,15,0.00,,,0.00,WUHU216HW,2013-04-06 21:22:00,
2013-04-06 14:27:00,85.1,31.1,27.25,ESE,113,0.4,3.4,15,0.00,,,0.00,WUHU216HW,2013-04-06 21:27:00,
2013-04-06 14:32:00,85.3,27.8,27.25,WSW,248,0.9,5.4,13,0.00,,,0.00,WUHU216HW,2013-04-06 21:32:00,
2013-04-06 14:37:00,85.3,31.2,27.25,NNE,23,0.7,5.4,15,0.00,,,0.00,WUHU216HW,2013-04-06 21:37:00,
2013-04-06 14:42:00,85.9,28.2,27.25,SSW,203,3.8,4.7,13,0.00,,,0.00,WUHU216HW,2013-04-06 21:42:00,
2013-04-06 14:47:00,85.7,28.1,27.24,NW,315,4.0,4.9,13,0.00,,,0.00,WUHU216HW,2013-04-06 21:47:00,
2013-04-06 14:52:00,85.7,28.1,27.24,NNW,338,1.1,5.6,13,0.00,,,0.00,WUHU216HW,2013-04-06 21:52:00,
2013-04-06 14:57:00,85.7,28.1,27.24,West,270,3.4,5.6,13,0.00,,,0.00,WUHU216HW,2013-04-06 21:57:00,
2013-04-06 15:02:00,86.0,28.4,27.24,NW,315,1.8,4.5,13,0.00,,,0.00,WUHU216HW,2013-04-06 22:02:00,
2013-04-06 15:07:00,86.8,29.0,27.24,WSW,248,2.5,4.5,13,0.00,,,0.00,WUHU216HW,2013-04-06 22:07:00,
2013-04-06 15:12:00,86.4,28.6,27.24,WSW,248,4.3,6.3,13,0.00,,,0.00,WUHU216HW,2013-04-06 22:12:00,
2013-04-06 15:17:00,86.0,28.4,27.23,West,270,2.7,6.3,13,0.00,,,0.00,WUHU216HW,2013-04-06 22:17:00,
2013-04-06 15:22:00,85.9,28.2,27.23,West,270,1.6,5.4,13,0.00,,,0.00,WUHU216HW,2013-04-06 22:22:00,
2013-04-06 15:27:00,86.4,28.6,27.22,WNW,293,6.5,6.5,13,0.00,,,0.00,WUHU216HW,2013-04-06 22:27:00,
2013-04-06 15:32:00,86.9,27.4,27.22,West,270,5.4,6.5,12,0.00,,,0.00,WUHU216HW,2013-04-06 22:32:00,
2013-04-06 15:37:00,86.6,27.1,27.22,NNW,338,4.0,6.5,12,0.00,,,0.00,WUHU216HW,2013-04-06 22:37:00,
2013-04-06 15:42:00,86.6,27.1,27.22,NNE,23,2.7,6.3,12,0.00,,,0.00,WUHU216HW,2013-04-06 22:42:00,
2013-04-06 15:47:00,86.6,27.1,27.22,West,270,7.2,7.2,12,0.00,,,0.00,WUHU216HW,2013-04-06 22:47:00,
2013-04-06 15:52:00,86.6,27.1,27.22,West,270,2.5,7.2,12,0.00,,,0.00,WUHU216HW,2013-04-06 22:52:00,
2013-04-06 15:57:00,86.4,26.9,27.22,NNE,23,4.0,6.5,12,0.00,,,0.00,WUHU216HW,2013-04-06 22:57:00,
2013-04-06 16:02:00,86.2,26.8,27.22,WNW,293,4.9,8.5,12,0.00,,,0.00,WUHU216HW,2013-04-06 23:02:00,
2013-04-06 16:07:00,86.4,26.9,27.22,West,270,2.7,8.5,12,0.00,,,0.00,WUHU216HW,2013-04-06 23:07:00,
2013-04-06 16:13:00,86.2,26.8,27.22,NW,315,2.7,6.9,12,0.00,,,0.00,WUHU216HW,2013-04-06 23:13:00,
2013-04-06 16:18:00,86.4,26.9,27.22,NW,315,3.1,6.9,12,0.00,,,0.00,WUHU216HW,2013-04-06 23:18:00,
2013-04-06 16:23:00,86.0,26.6,27.21,NNW,338,1.8,5.4,12,0.00,,,0.00,WUHU216HW,2013-04-06 23:23:00,
2013-04-06 16:28:00,86.2,26.8,27.21,SW,225,5.4,5.6,12,0.00,,,0.00,WUHU216HW,2013-04-06 23:28:00,
2013-04-06 16:33:00,85.9,26.5,27.21,NW,315,3.4,8.9,12,0.00,,,0.00,WUHU216HW,2013-04-06 23:33:00,
2013-04-06 16:38:00,86.2,26.8,27.21,SW,225,3.1,8.9,12,0.00,,,0.00,WUHU216HW,2013-04-06 23:38:00,
2013-04-06 16:43:00,86.0,28.4,27.21,South,180,4.0,6.5,13,0.00,,,0.00,WUHU216HW,2013-04-06 23:43:00,
2013-04-06 16:48:00,86.2,26.8,27.21,SSW,203,5.4,6.5,12,0.00,,,0.00,WUHU216HW,2013-04-06 23:48:00,
2013-04-06 16:53:00,86.2,26.8,27.21,WSW,248,2.2,6.5,12,0.00,,,0.00,WUHU216HW,2013-04-06 23:53:00,
2013-04-06 16:58:00,86.2,28.5,27.21,SSE,158,2.9,6.5,13,0.00,,,0.00,WUHU216HW,2013-04-06 23:58:00,
2013-04-06 17:03:00,86.4,28.6,27.21,WNW,293,1.8,5.8,13,0.00,,,0.00,WUHU216HW,2013-04-07 00:03:00,
2013-04-06 17:08:00,86.4,28.6,27.21,SW,225,1.8,4.7,13,0.00,,,0.00,WUHU216HW,2013-04-07 00:08:00,
2013-04-06 17:13:00,86.2,28.5,27.21,NE,45,4.0,6.0,13,0.00,,,0.00,WUHU216HW,2013-04-07 00:13:00,
2013-04-06 17:18:00,85.9,28.2,27.21,WNW,293,4.0,6.0,13,0.00,,,0.00,WUHU216HW,2013-04-07 00:18:00,
2013-04-06 17:23:00,85.9,28.2,27.21,WSW,248,3.8,5.1,13,0.00,,,0.00,WUHU216HW,2013-04-07 00:23:00,
2013-04-06 17:28:00,86.0,28.4,27.21,NNW,338,3.8,5.1,13,0.00,,,0.00,WUHU216HW,2013-04-07 00:28:00,
2013-04-06 17:33:00,86.0,31.8,27.21,SW,225,2.5,4.9,15,0.00,,,0.00,WUHU216HW,2013-04-07 00:33:00,
2013-04-06 17:38:00,86.0,30.1,27.21,SSW,203,3.4,4.9,14,0.00,,,0.00,WUHU216HW,2013-04-07 00:38:00,
2013-04-06 17:43:00,85.0,30.9,27.21,NNW,338,2.9,5.4,15,0.00,,,0.00,WUHU216HW,2013-04-07 00:43:00,
2013-04-06 17:48:00,84.6,30.6,27.21,SW,225,1.8,5.4,15,0.00,,,0.00,WUHU216HW,2013-04-07 00:48:00,
2013-04-06 17:53:00,84.2,30.3,27.21,WSW,248,2.5,4.0,15,0.00,,,0.00,WUHU216HW,2013-04-07 00:53:00,
2013-04-06 17:58:00,83.9,31.8,27.21,ESE,113,1.8,4.7,16,0.00,,,0.00,WUHU216HW,2013-04-07 00:58:00,
2013-04-06 18:03:00,83.7,31.6,27.21,WSW,248,3.8,5.4,16,0.00,,,0.00,WUHU216HW,2013-04-07 01:03:00,
2013-04-06 18:08:00,83.3,31.3,27.21,West,270,3.8,5.4,16,0.00,,,0.00,WUHU216HW,2013-04-07 01:08:00,
2013-04-06 18:13:00,83.2,31.2,27.21,WSW,248,4.0,6.0,16,0.00,,,0.00,WUHU216HW,2013-04-07 01:13:00,
2013-04-06 18:18:00,82.8,31.0,27.21,SW,225,4.7,6.0,16,0.00,,,0.00,WUHU216HW,2013-04-07 01:18:00,
2013-04-06 18:23:00,82.4,30.7,27.21,West,270,2.2,5.8,16,0.00,,,0.00,WUHU216HW,2013-04-07 01:23:00,
2013-04-06 18:28:00,82.3,30.5,27.21,WNW,293,1.8,4.7,16,0.00,,,0.00,WUHU216HW,2013-04-07 01:28:00,
2013-04-06 18:33:00,81.9,30.2,27.21,NW,315,2.0,4.5,16,0.00,,,0.00,WUHU216HW,2013-04-07 01:33:00,
2013-04-06 18:38:00,81.7,31.8,27.21,West,270,1.8,4.3,17,0.00,,,0.00,WUHU216HW,2013-04-07 01:38:00,
2013-04-06 18:43:00,81.2,31.3,27.21,North,0,1.6,4.3,17,0.00,,,0.00,WUHU216HW,2013-04-07 01:43:00,
2013-04-06 18:48:00,81.0,31.2,27.21,NW,315,1.1,4.0,17,0.00,,,0.00,WUHU216HW,2013-04-07 01:48:00,
2013-04-06 18:53:00,80.6,31.0,27.21,NW,315,1.8,4.0,17,0.00,,,0.00,WUHU216HW,2013-04-07 01:53:00,
2013-04-06 18:58:00,80.3,32.3,27.21,West,270,1.1,3.4,18,0.00,,,0.00,WUHU216HW,2013-04-07 01:58:00,
2013-04-06 19:04:00,79.9,32.0,27.21,West,270,4.5,4.5,18,0.00,,,0.00,WUHU216HW,2013-04-07 02:04:00,
2013-04-06 19:09:00,79.7,31.9,27.21,West,270,1.8,4.5,18,0.00,,,0.00,WUHU216HW,2013-04-07 02:09:00,
2013-04-06 19:14:00,79.4,31.5,27.22,WNW,293,1.6,2.9,18,0.00,,,0.00,WUHU216HW,2013-04-07 02:14:00,
2013-04-06 19:19:00,79.2,31.3,27.22,NNW,338,1.3,3.1,18,0.00,,,0.00,WUHU216HW,2013-04-07 02:19:00,
2013-04-06 19:24:00,78.8,32.7,27.22,North,0,0.9,3.1,19,0.00,,,0.00,WUHU216HW,2013-04-07 02:24:00,
2013-04-06 19:29:00,78.8,32.7,27.22,NNW,338,1.1,4.0,19,0.00,,,0.00,WUHU216HW,2013-04-07 02:29:00,
2013-04-06 19:34:00,78.5,32.4,27.22,West,270,0.9,4.0,19,0.00,,,0.00,WUHU216HW,2013-04-07 02:34:00,
2013-04-06 19:39:00,78.1,32.1,27.22,WSW,248,2.0,2.5,19,0.00,,,0.00,WUHU216HW,2013-04-07 02:39:00,
2013-04-06 19:44:00,77.9,32.0,27.22,West,270,2.5,2.5,19,0.00,,,0.00,WUHU216HW,2013-04-07 02:44:00,
2013-04-06 19:49:00,77.8,31.9,27.22,WSW,248,0.9,2.5,19,0.00,,,0.00,WUHU216HW,2013-04-07 02:49:00,
2013-04-06 19:54:00,77.4,33.2,27.22,West,270,0.4,2.5,20,0.00,,,0.00,WUHU216HW,2013-04-07 02:54:00,
2013-04-06 19:59:00,77.2,34.1,27.22,WSW,248,0.4,2.5,21,0.00,,,0.00,WUHU216HW,2013-04-07 02:59:00,
2013-04-06 20:04:00,76.9,33.9,27.22,West,270,0.7,2.5,21,0.00,,,0.00,WUHU216HW,2013-04-07 03:04:00,
2013-04-06 20:09:00,76.5,33.6,27.23,SW,225,1.1,2.0,21,0.00,,,0.00,WUHU216HW,2013-04-07 03:09:00,
2013-04-06 20:15:00,76.1,33.3,27.23,WSW,248,0.2,2.0,21,0.00,,,0.00,WUHU216HW,2013-04-07 03:15:00,
2013-04-06 20:19:00,76.0,33.1,27.23,WSW,248,1.1,2.2,21,0.00,,,0.00,WUHU216HW,2013-04-07 03:19:00,
2013-04-06 20:25:00,75.6,32.9,27.23,WSW,248,0.4,2.2,21,0.00,,,0.00,WUHU216HW,2013-04-07 03:25:00,
2013-04-06 20:30:00,75.4,32.7,27.24,SW,225,0.4,1.8,21,0.00,,,0.00,WUHU216HW,2013-04-07 03:30:00,
2013-04-06 20:35:00,75.1,33.4,27.24,WSW,248,0.9,1.8,22,0.00,,,0.00,WUHU216HW,2013-04-07 03:35:00,
2013-04-06 20:40:00,74.9,32.2,27.24,WSW,248,1.8,1.8,21,0.00,,,0.00,WUHU216HW,2013-04-07 03:40:00,
2013-04-06 20:45:00,74.7,32.1,27.24,SSE,158,0.4,2.2,21,0.00,,,0.00,WUHU216HW,2013-04-07 03:45:00,
2013-04-06 20:50:00,74.5,32.9,27.25,WSW,248,2.2,3.1,22,0.00,,,0.00,WUHU216HW,2013-04-07 03:50:00,
2013-04-06 20:55:00,74.2,32.7,27.25,West,270,0.9,3.6,22,0.00,,,0.00,WUHU216HW,2013-04-07 03:55:00,
2013-04-06 21:00:00,73.8,32.4,27.25,SSW,203,2.5,3.6,22,0.00,,,0.00,WUHU216HW,2013-04-07 04:00:00,
2013-04-06 21:02:00,73.8,32.4,27.25,SW,225,2.5,2.5,22,0.00,,,0.00,WUHU216HW,2013-04-07 04:02:00,
2013-04-06 21:07:00,73.4,32.0,27.25,SSE,158,1.6,2.5,22,0.00,,,0.00,WUHU216HW,2013-04-07 04:07:00,
2013-04-06 21:12:00,73.4,33.1,27.25,WSW,248,2.9,2.9,23,0.00,,,0.00,WUHU216HW,2013-04-07 04:12:00,
2013-04-06 21:17:00,73.3,33.0,27.25,WSW,248,2.5,4.5,23,0.00,,,0.00,WUHU216HW,2013-04-07 04:17:00,
2013-04-06 21:22:00,73.1,32.8,27.25,WSW,248,4.0,4.5,23,0.00,,,0.00,WUHU216HW,2013-04-07 04:22:00,
2013-04-06 21:27:00,72.9,32.6,27.25,SW,225,1.8,4.0,23,0.00,,,0.00,WUHU216HW,2013-04-07 04:27:00,
2013-04-06 21:32:00,72.7,32.5,27.25,West,270,3.1,4.0,23,0.00,,,0.00,WUHU216HW,2013-04-07 04:32:00,
2013-04-06 21:37:00,72.5,32.3,27.26,West,270,1.1,3.8,23,0.00,,,0.00,WUHU216HW,2013-04-07 04:37:00,
2013-04-06 21:42:00,72.2,32.0,27.26,SSE,158,0.4,3.4,23,0.00,,,0.00,WUHU216HW,2013-04-07 04:42:00,
2013-04-06 21:47:00,72.0,31.9,27.26,SSE,158,0.4,1.8,23,0.00,,,0.00,WUHU216HW,2013-04-07 04:47:00,
2013-04-06 21:52:00,71.5,32.4,27.26,WSW,248,0.4,1.1,24,0.00,,,0.00,WUHU216HW,2013-04-07 04:52:00,
2013-04-06 21:57:00,71.1,32.1,27.26,SSW,203,1.6,1.6,24,0.00,,,0.00,WUHU216HW,2013-04-07 04:57:00,
2013-04-06 22:02:00,70.9,32.9,27.26,SSW,203,0.2,1.8,25,0.00,,,0.00,WUHU216HW,2013-04-07 05:02:00,
2013-04-06 22:07:00,70.7,32.8,27.26,ESE,113,0.7,1.8,25,0.00,,,0.00,WUHU216HW,2013-04-07 05:07:00,
2013-04-06 22:12:00,70.4,32.5,27.26,SSW,203,0.0,1.1,25,0.00,,,0.00,WUHU216HW,2013-04-07 05:12:00,
2013-04-06 22:17:00,70.0,32.2,27.27,SSW,203,0.0,0.4,25,0.00,,,0.00,WUHU216HW,2013-04-07 05:17:00,
2013-04-06 22:22:00,69.7,32.9,27.26,SSW,203,2.2,2.2,26,0.00,,,0.00,WUHU216HW,2013-04-07 05:22:00,
2013-04-06 22:27:00,69.5,32.8,27.26,SSW,203,0.4,2.2,26,0.00,,,0.00,WUHU216HW,2013-04-07 05:27:00,
2013-04-06 22:32:00,69.5,32.8,27.26,SSW,203,0.9,0.9,26,0.00,,,0.00,WUHU216HW,2013-04-07 05:32:00,
2013-04-06 22:37:00,69.1,32.4,27.26,South,180,0.0,0.9,26,0.00,,,0.00,WUHU216HW,2013-04-07 05:37:00,
2013-04-06 22:42:00,69.1,33.4,27.26,South,180,0.0,0.9,27,0.00,,,0.00,WUHU216HW,2013-04-07 05:42:00,
2013-04-06 22:47:00,68.9,33.3,27.26,SSW,203,0.0,0.7,27,0.00,,,0.00,WUHU216HW,2013-04-07 05:47:00,
2013-04-06 22:52:00,68.8,33.1,27.26,South,180,0.0,0.7,27,0.00,,,0.00,WUHU216HW,2013-04-07 05:52:00,
2013-04-06 22:57:00,68.6,33.9,27.27,SSE,158,0.0,0.4,28,0.00,,,0.00,WUHU216HW,2013-04-07 05:57:00,
2013-04-06 23:02:00,68.4,33.9,27.27,SE,135,0.4,0.4,28,0.00,,,0.00,WUHU216HW,2013-04-07 06:02:00,
2013-04-06 23:07:00,68.4,33.9,27.27,SE,135,1.1,1.8,28,0.00,,,0.00,WUHU216HW,2013-04-07 06:07:00,
2013-04-06 23:12:00,68.0,33.5,27.27,SE,135,0.4,1.8,28,0.00,,,0.00,WUHU216HW,2013-04-07 06:12:00,
2013-04-06 23:17:00,68.0,34.5,27.27,SSE,158,0.7,1.1,29,0.00,,,0.00,WUHU216HW,2013-04-07 06:17:00,
2013-04-06 23:22:00,67.9,34.3,27.27,East,90,0.7,2.2,29,0.00,,,0.00,WUHU216HW,2013-04-07 06:22:00,
2013-04-06 23:27:00,67.7,34.2,27.27,SE,135,0.7,2.2,29,0.00,,,0.00,WUHU216HW,2013-04-07 06:27:00,
2013-04-06 23:32:00,67.5,34.0,27.27,NE,45,1.1,1.1,29,0.00,,,0.00,WUHU216HW,2013-04-07 06:32:00,
2013-04-06 23:37:00,67.3,33.9,27.27,SSE,158,0.4,1.1,29,0.00,,,0.00,WUHU216HW,2013-04-07 06:37:00,
2013-04-06 23:43:00,67.3,34.9,27.27,SE,135,0.4,2.0,30,0.00,,,0.00,WUHU216HW,2013-04-07 06:43:00,
2013-04-06 23:48:00,67.1,34.7,27.27,South,180,0.2,2.0,30,0.00,,,0.00,WUHU216HW,2013-04-07 06:48:00,
2013-04-06 23:53:00,67.0,34.6,27.27,NW,315,1.8,1.8,30,0.00,,,0.00,WUHU216HW,2013-04-07 06:53:00,
2013-04-06 23:58:00,66.6,34.3,27.27,SE,135,0.7,1.8,30,0.00,,,0.00,WUHU216HW,2013-04-07 06:58:00,